Regional Weather Roundup
Issued by NWS Bismarck, ND

Home | Current Version | Previous Version | Text Only | Print | Product List | Glossary On
Versions: 1 2 3 4 5 6 7 8 9 10 11 12 13 14 15 16 17 18 19 20 21 22 23 24 25 26 27 28 29 30 31 32 33 34 35 36 37 38 39 40 41 42 43 44 45 46 47 48 49 50
173
ASUS43 KBIS 021810
RWRBIS

NWR BROADCAST TEXT
NATIONAL WEATHER SERVICE BISMARCK ND
1200 PM CST FRI DEC 02 2016

NOTE: "FAIR" INDICATES FEW OR NO CLOUDS BELOW 12,000 FEET WITH NO
SIGNIFICANT WEATHER AND/OR OBSTRUCTIONS TO VISIBILITY.


CITY           SKY/WX    TMP DP  RH WIND       PRES   REMARKS
WILLISTON      CLOUDY    28  23  81 SW8       30.19S WCI  20
MINOT          CLOUDY    27  23  85 SE6       30.20F
MINOT AFB      CLOUDY    26  23  86 S7        30.20F WCI  19
BISMARCK       CLOUDY    25  18  74 E8        30.26F WCI  16
DICKINSON      CLOUDY    26  23  88 S6        30.15F WCI  19
GARRISON         N/A     27  22  81 S13       30.20F WCI  16
HETTINGER ARPT LGT SNOW  27  24  89 S6        30.19S FOG
JAMESTOWN      CLOUDY    28  20  71 N7        30.24F
BEACH          CLOUDY    27  27 100 W13       30.20S WCI  16
CARRINGTON     CLOUDY    28  19  69 W5        30.26F
HAZEN          CLOUDY    27  21  80 SE10      30.25S WCI  17
RUGBY            N/A     27  23  86 SW7       30.23F WCI  19
STANLEY        MOCLDY    27  27 100 S7        30.19F WCI  19
TIOGA          CLOUDY    27  27 100 S6        30.18S WCI  20
WATFORD CITY   MOCLDY    27  25  93 SW9       30.19S WCI  17
$$

CITY           SKY/WX    TMP DP  RH WIND       PRES   REMARKS
GRAND FORKS    CLOUDY    32  22  66 NW12      30.26S
GRAND FORKS AF CLOUDY    31  22  68 N8        30.26S
DEVILS LAKE    CLOUDY    30  20  66 N5        30.24S
FARGO          CLOUDY    30  21  69 N9        30.27S
CANDO          CLOUDY    28  27  93 W7        30.25F
CAVALIER         N/A     28  25  86 NW3       30.26S
GRAFTON        CLOUDY    30  27  86 NW5       30.27F
GWINNER        CLOUDY    30  23  74 W5        30.27F
LANGDON        CLOUDY    30  25  80 W8        30.21F
ROLLA          CLOUDY    27  27 100 SW8       30.21S WCI  18
WALHALLA         N/A     28  28 100 CALM      30.25S
$$

CITY           SKY/WX    TMP DP  RH WIND       PRES   REMARKS
ABERDEEN       CLOUDY    29  21  72 NW6       30.27F
MOBRIDGE       CLOUDY    29  23  78 E7        30.23S
BUFFALO          N/A     30  26  85 NW7       30.11F
RAPID CITY     CLOUDY    36  24  62 N12       30.19S
GLASGOW        CLOUDY    28  24  85 S7        30.15F
SIDNEY         CLOUDY    28  26  92 S8        30.19F WCI  20
WOLF POINT     CLOUDY    33  25  72 W6        30.18F
GLENDIVE       CLOUDY    27  25  92 S5        30.19F
MILES CITY     CLOUDY    27  23  85 S6        30.19F
BAKER          CLOUDY    28  23  81 W8        30.19S WCI  20
$$

CITY           SKY/WX    TMP DP  RH WIND       PRES   REMARKS
BILLINGS       MOSUNNY   36  24  62 SW8       30.19F
GREAT FALLS    SUNNY     29  22  75 SW16      30.12F WCI  17
REGINA         FRZ DRZL  27  25  93 W8        30.13S VSB 1   WCI  18
ESTEVAN        FLURRIES  28  25  86 S8        30.17F
$$





USA.gov is the U.S. government's official web portal to all federal, state and local government web resources and services.